Observations
| Time | Sensor | AQI | SAQ | Temp °C | Hum % | Pres Pa | CO μg/m³ | H₂S μg/m³ | NO μg/m³ | NO₂ μg/m³ | O₃ μg/m³ | SO₂ μg/m³ | CO₂e PPM | VOC PPM | PM1 μg/m³ | PM2.5 μg/m³ | PM4 μg/m³ | PM10 μg/m³ | TPS µm |
|---|---|---|---|---|---|---|---|---|---|---|---|---|---|---|---|---|---|---|---|
| Wednesday 12 August 2026 | |||||||||||||||||||
| 12:07 | Trim Patrick St | 2 | 30.9 | 40 | 69,336 | 0 | 0 | 0.71 | 9.23 | 91.05 | 13.18 | 2.86 | 9.36 | 10.3 | |||||
| 12:06 | Trim Patrick St | 2 | 30.9 | 40 | 69,341 | 0 | 0 | 0.69 | 9.43 | 104.93 | 12.66 | 5.43 | 10.93 | 12.02 | |||||
| 12:06 | Trim Market St | 2 | 34.2 | 34 | 66,414 | 0 | 0 | 0.4 | 12.2 | 74.64 | 0 | 1.43 | 4.21 | 4.63 | |||||
| 12:05 | Trim Patrick St | 2 | 30.9 | 41 | 69,351 | 0 | 0 | 0.69 | 7.7 | 69.42 | 11.41 | 5.43 | 10.11 | 11.12 | |||||
| 12:04 | Trim Patrick St | 2 | 30.9 | 40 | 69,367 | 0 | 0 | 0.73 | 8.38 | 72.86 | 12.22 | 3.71 | 9.36 | 10.3 | |||||
| 12:03 | Trim Patrick St | 2 | 31 | 41 | 69,357 | 0 | 0 | 0.72 | 11.24 | 109.17 | 12.34 | 4.57 | 10.09 | 11.1 | |||||
| 12:03 | Trim Market St | 2 | 34.3 | 34 | 66,427 | 0 | 0 | 0.36 | 12.03 | 80.21 | 0 | 0.71 | 3.68 | 4.04 | |||||
| 12:02 | Trim Patrick St | 2 | 31 | 42 | 69,341 | 0 | 0 | 0.73 | 10.17 | 84.62 | 11.34 | 3.71 | 9.28 | 10.21 | |||||
| 12:01 | Trim Patrick St | 2 | 31 | 41 | 69,353 | 0 | 0 | 0.73 | 23.83 | 35.76 | 10.16 | 5.43 | 10.13 | 11.15 | |||||
| 12:00 | Trim Patrick St | 2 | 31 | 42 | 69,339 | 0 | 0 | 0.72 | 6.3 | 65.78 | 12.69 | 6.29 | 12.36 | 13.6 | |||||
| 12:00 | Trim Market St | 2 | 34.2 | 34 | 66,441 | 0 | 0 | 0.33 | 12.26 | 97.85 | 0 | 2.14 | 5.29 | 5.82 | |||||
| 11:59 | Trim Patrick St | 2 | 31 | 42 | 69,345 | 0 | 0 | 0.66 | 11.86 | 111.11 | 12.62 | 4.57 | 9.29 | 10.22 | |||||
| 11:58 | Trim Patrick St | 2 | 30.9 | 41 | 69,322 | 0 | 0 | 0.69 | 9.09 | 77.18 | 11.7 | 4.57 | 9.33 | 10.26 | |||||
| 11:58 | Trim Market St | 2 | 34.2 | 34 | 66,429 | 0 | 0 | 0.33 | 12.09 | 78.5 | 0 | 2.14 | 4.76 | 5 | |||||
| 11:57 | Trim Patrick St | 2 | 30.9 | 42 | 69,324 | 0 | 0 | 0.71 | 9.54 | 69.29 | 11.7 | 2.86 | 9.24 | 10.17 | |||||
| 11:56 | Trim Patrick St | 2 | 30.8 | 42 | 69,326 | 0 | 0 | 0.72 | 9.86 | 81.06 | 12.84 | 4.57 | 10.01 | 11.01 | |||||
| 11:55 | Trim Patrick St | 2 | 30.7 | 42 | 69,328 | 0 | 0 | 0.72 | 9.43 | 77.54 | 12.47 | 4.57 | 10.82 | 11.9 | |||||
| 11:54 | Trim Patrick St | 2 | 30.7 | 43 | 69,304 | 0 | 0 | 0.73 | 11.96 | 87.61 | 13.16 | 5.43 | 10.77 | 11.85 | |||||
| 11:53 | Trim Patrick St | 2 | 30.7 | 42 | 69,298 | 0 | 0 | 0.73 | 11.1 | 81.1 | 11.2 | 5.43 | 10.8 | 11.88 | |||||
| 11:52 | Trim Patrick St | 2 | 30.6 | 42 | 69,290 | 0 | 0 | 0.71 | 9.61 | 76.99 | 11.97 | 4.57 | 9.26 | 10.18 | |||||